CAPE
0 0 0 0 0 0 0 0 0 0 0 0 0 0 0 0 0 0 0 0 0 0 0 0 0 506 1596 1410 1496 1424 1320 1183 1017 872 778 652 728 770 893 1090 1263 1226 1104 1003 1106 1052 1013 1082 1048 815 796 745 665 646 636 839 952 934 990 1147 1161 1056 1086 1166 1096 1015 923 984 1045 1008 888 780 956 758 774 637 772 790 939 937 1110 1059 1041 911 998 1125
0 0 0 0 0 0 0 0 0 0 0 0 0 0 0 0 0 0 0 0 0 0 0 0 0 0 1505 1467 1522 1373 1305 1129 1008 874 864 818 927 769 820 1040 1192 1047 1012 1102 1128 1106 1067 1069 1029 994 867 749 663 640 715 850 1018 1000 975 1036 1120 1140 1094 1055 1002 988 945 960 928 953 885 715 848 934 725 715 687 688 710 675 704 890 958 892 823 872
0 0 0 0 0 0 0 0 0 0 0 0 0 0 0 0 0 0 0 0 0 0 0 0 0 0 1471 1510 1437 1190 1116 938 860 773 812 896 864 732 816 1006 1273 1021 1012 1153 1178 1075 954 1035 1126 1058 942 715 576 731 859 955 1016 1008 985 955 1090 1099 993 937 903 863 850 840 831 840 696 655 792 788 724 772 782 670 526 380 238 590 741 825 798 708
0 0 0 0 0 0 0 0 0 0 0 0 0 0 0 0 0 0 0 0 0 0 0 0 0 1776 1467 1415 1236 1005 1012 1032 900 811 848 986 940 844 870 1036 1056 988 1064 1180 1232 1166 1182 1130 1189 1098 963 727 692 800 939 925 917 892 926 898 1025 974 792 723 700 669 726 774 744 659 633 640 764 766 792 690 600 600 520 505 517 695 802 839 728 611
0 0 0 0 0 0 0 0 0 0 0 0 0 0 0 0 0 0 0 0 0 0 0 483 1262 1444 1337 1186 1274 1117 1215 1295 1111 892 812 990 913 900 979 1122 1102 1117 1114 1178 1098 1209 1366 1370 1279 1110 904 664 812 865 839 781 776 877 895 907 889 758 740 747 665 686 707 705 646 600 598 674 677 797 746 639 691 680 643 620 695 762 724 654 606 550
0 0 0 0 0 0 0 0 0 0 0 0 0 0 0 0 0 0 0 0 0 0 482 583 1127 1089 1054 1112 1073 1225 1344 1355 1125 1053 945 948 931 1217 1162 1092 1088 1044 1196 1259 1310 1350 1411 1353 1179 1017 818 770 910 921 806 810 854 948 927 899 768 690 690 732 680 652 681 598 603 566 665 690 731 629 462 588 659 618 611 686 599 558 436 344 0 0
0 0 0 0 0 0 0 0 0 0 0 0 0 0 0 0 0 0 0 0 0 0 149 54 264 1027 748 723 914 1179 1325 1404 1271 1094 1065 1148 1132 1187 1135 1060 1101 1225 1376 1384 1383 1422 1434 1298 1082 951 907 866 975 1028 953 921 887 852 760 763 827 800 737 661 659 667 675 578 559 567 625 580 594 445 526 627 669 688 587 447 369 320 0 0 0 0
0 0 0 0 0 0 0 0 0 0 0 0 0 0 0 0 0 0 0 0 0 0 0 0 153 967 701 417 704 1089 1254 1480 1373 1167 1133 1280 1182 1166 1136 1192 1260 1328 1366 1409 1259 1307 1293 1257 1079 1020 1029 896 863 953 912 857 805 719 670 745 781 797 767 715 679 730 621 529 645 640 571 474 379 481 564 585 521 484 424 362 296 0 0 0 0 0
0 0 0 0 0 0 0 0 0 0 0 0 0 0 0 0 0 0 0 0 0 0 8 0 430 719 588 474 812 1162 1346 1480 1414 1348 1260 1366 1280 1180 1239 1312 1380 1322 1235 1214 1146 1165 1323 1044 998 934 1129 986 832 826 863 758 772 794 760 756 766 799 757 780 803 709 639 622 640 622 575 480 459 502 534 510 520 481 369 74 0 0 0 0 0 0
0 0 0 0 0 0 0 0 0 0 0 0 0 0 0 0 0 0 0 0 0 0 0 0 0 0 436 564 832 1042 1305 1352 1513 1500 1467 1523 1345 1275 1329 1414 1381 1325 1206 1135 1168 1012 1083 896 963 1006 1066 1040 824 822 899 800 794 895 836 834 834 771 793 756 644 527 526 541 482 538 567 542 520 497 469 404 405 376 316 0 0 0 0 0 0 0
0 0 0 0 0 0 0 0 0 0 0 0 0 0 0 0 0 0 0 0 0 0 0 0 0 0 349 505 678 892 1104 1198 1394 1556 1564 1638 1380 1342 1335 1384 1388 1315 1217 1150 1096 1072 1024 879 865 902 1038 1034 738 861 966 853 873 895 848 808 789 783 722 663 623 552 492 434 420 485 526 480 488 439 374 312 279 48 0 0 2 0 1 0 0 0
0 0 0 0 0 0 0 0 0 0 0 0 0 0 0 0 0 0 0 0 0 0 0 0 0 0 27 548 661 714 842 1049 1344 1380 1460 1442 1243 1238 1303 1390 1474 1386 1275 1216 1090 1121 1080 975 913 973 940 812 763 798 962 888 780 764 841 799 737 635 591 556 541 548 469 425 421 505 534 518 451 386 345 296 241 0 0 4 0 0 0 0 0 0
0 0 0 0 0 0 0 0 0 0 0 0 0 0 0 0 0 0 0 0 0 0 0 0 0 0 0 552 727 726 601 999 1244 1264 1450 1353 1164 1038 1160 1380 1507 1416 1278 1163 1146 1145 1100 1013 992 1032 965 828 835 910 992 878 718 780 780 691 592 503 447 452 444 484 435 488 546 540 518 449 412 341 332 264 229 0 0 15 0 0 0 0 0 0
0 0 0 0 0 0 0 0 0 0 0 0 0 0 0 0 0 0 0 0 0 0 0 0 0 0 45 275 676 715 628 819 1171 1107 1222 1258 1060 956 1131 1452 1526 1434 1343 1279 1228 1171 1064 1013 1030 1059 932 837 866 921 872 794 765 706 608 545 483 370 406 415 510 488 461 488 513 504 456 462 384 334 242 0 28 0 0 8 0 0 0 0 0 0
0 0 0 0 0 0 0 0 0 0 0 0 0 0 0 0 0 0 0 0 0 0 0 0 0 0 0 307 664 711 679 727 922 1037 1069 1100 1039 1082 1314 1487 1534 1471 1416 1333 1232 1144 1045 1052 1061 1011 906 841 797 805 683 695 610 538 495 422 380 312 328 345 428 433 453 476 476 462 462 393 350 275 240 180 103 55 0 0 0 0 0 0 0 0
0 0 0 0 0 0 0 0 0 0 0 0 0 0 0 0 0 0 0 0 0 0 0 0 0 39 8 359 515 518 498 616 678 878 894 976 1120 1276 1432 1552 1540 1488 1446 1323 1200 1118 1089 1058 1022 954 854 821 759 721 680 596 556 489 386 325 287 288 300 312 346 450 456 381 407 392 397 368 240 251 230 191 71 0 0 0 0 0 0 0 0 0
0 0 0 0 0 0 0 0 0 0 0 0 0 0 0 0 0 0 0 2 0 0 0 0 0 7 21 388 558 639 631 649 656 652 649 978 1122 1389 1551 1611 1564 1472 1421 1246 1135 1110 1102 1003 942 874 804 788 733 701 647 576 489 405 354 390 353 311 316 216 371 370 389 366 384 376 313 189 0 0 0 0 0 0 0 0 0 0 0 0 0 0
0 0 0 0 0 0 0 0 0 0 0 0 0 0 0 0 0 0 0 0 0 0 0 0 0 40 170 366 282 567 651 669 654 707 881 1196 1292 1418 1554 1577 1560 1462 1323 1188 1106 1130 1123 988 901 816 728 718 664 614 581 505 455 438 408 390 325 303 0 0 45 314 334 326 170 0 0 0 0 0 0 0 0 0 0 0 0 0 0 0 0 0
0 0 0 0 0 0 0 0 0 0 0 0 0 0 0 0 0 0 0 0 0 0 0 0 0 0 67 258 54 230 231 459 513 897 1132 1252 1368 1462 1599 1647 1574 1450 1280 1161 1130 1066 1002 952 890 764 672 582 576 538 472 424 465 484 498 465 445 409 315 0 19 174 182 107 0 0 0 0 67 0 0 0 0 0 0 0 0 0 0 0 0 0
4 0 0 0 0 0 0 0 0 0 0 0 0 0 0 0 0 0 0 0 0 0 0 0 0 0 80 147 0 93 542 534 630 1026 1208 1293 1428 1524 1623 1611 1538 1422 1238 1178 1116 978 947 933 856 756 680 624 583 490 407 389 452 444 420 391 352 288 207 0 0 0 0 0 0 0 0 87 24 0 0 0 0 0 0 0 0 0 0 0 0 0
8 6 14 1 0 0 0 0 0 0 0 0 0 0 0 0 0 0 0 0 0 0 0 0 0 0 0 0 109 206 444 603 799 990 1222 1337 1408 1537 1553 1558 1497 1386 1260 1222 1127 932 940 928 864 822 711 627 560 479 396 420 438 448 440 461 389 322 51 0 49 76 11 0 0 0 0 0 0 0 0 0 0 0 0 0 0 0 0 0 0 0
15 3 12 7 0 0 0 0 0 0 0 0 0 0 0 0 0 0 0 0 0 0 0 0 0 0 10 5 134 205 362 552 823 959 1077 1204 1418 1524 1506 1514 1439 1353 1311 1227 1100 968 999 936 920 842 701 566 478 410 386 444 533 538 481 432 402 301 230 179 157 0 0 0 0 0 0 0 0 0 0 0 0 0 0 0 0 0 0 0 0 0
63 1 14 1 0 0 0 0 0 0 0 0 0 0 0 0 0 0 0 0 0 0 0 0 0 0 242 50 165 404 547 681 841 992 1025 1200 1432 1506 1533 1462 1378 1347 1315 1215 1079 1027 984 880 873 747 604 493 449 360 370 416 524 514 484 429 367 271 130 0 0 0 0 0 0 0 0 0 0 0 0 0 0 0 0 0 0 0 0 0 0 0
302 7 6 0 0 0 0 0 0 0 0 0 0 0 0 0 0 0 0 0 0 0 0 2 0 21 212 506 122 583 727 834 936 944 1088 1271 1405 1485 1509 1437 1354 1318 1248 1209 1090 997 933 882 822 644 569 503 484 340 306 437 564 524 459 350 256 0 0 0 0 0 0 0 0 0 0 0 0 0 0 0 0 0 0 0 0 0 0 0 0 0
8 5 3 0 0 0 0 0 0 0 0 0 0 0 0 0 0 0 0 0 0 0 0 0 2 51 184 301 514 1073 756 817 727 1098 1357 1407 1470 1472 1484 1494 1437 1330 1303 1201 1109 1082 955 872 743 665 555 560 501 325 321 507 502 466 386 268 0 0 0 0 0 0 0 0 0 0 0 0 0 0 0 62 0 0 0 0 0 0 0 0 0 0
7 4 2 0 0 0 0 0 0 0 0 0 0 0 0 0 0 0 0 0 0 0 0 0 227 281 418 190 871 1674 1795 1675 1466 1452 1417 1399 1490 1498 1514 1481 1402 1370 1324 1253 1161 1129 997 822 711 695 616 560 498 390 322 433 469 378 338 258 0 0 0 0 0 0 0 0 0 0 0 0 0 0 30 100 130 127 0 0 0 0 0 0 0 0
7 3 0 0 0 0 0 0 0 0 0 0 0 0 0 0 0 0 0 0 0 0 1 68 408 303 385 910 1258 1963 2081 1808 1608 1486 1367 1309 1374 1493 1560 1512 1417 1374 1314 1287 1194 1106 999 778 754 726 636 602 520 446 144 394 402 357 317 302 0 0 0 0 0 0 0 0 0 0 0 0 0 0 0 0 0 0 0 0 0 0 0 0 0 0
0 4 2 0 0 0 0 0 0 0 0 0 0 0 0 0 0 0 0 0 0 0 2 327 378 230 398 784 1360 1932 2089 1882 1683 1475 1365 1348 1416 1545 1517 1440 1399 1344 1292 1192 1110 1016 930 789 735 724 672 607 516 476 98 304 387 356 341 80 0 0 0 0 0 0 0 0 0 0 0 0 0 0 0 0 0 0 0 0 0 0 0 0 0 0
0 6 2 0 0 0 0 0 0 0 0 0 0 0 0 0 0 0 0 11 1 0 109 470 365 228 433 775 1447 1752 1932 1972 1912 1652 1498 1513 1578 1658 1628 1497 1404 1331 1269 1172 1062 940 863 767 664 732 728 687 566 530 173 87 55 336 305 0 0 0 0 0 0 0 0 0 0 0 0 0 0 0 0 0 0 0 0 0 0 0 0 0 0 0
0 5 1 2 3 10 0 0 0 0 0 0 0 0 0 0 0 0 0 0 0 193 462 496 397 348 874 1088 1795 1908 1955 1852 1754 1685 1510 1522 1585 1642 1584 1504 1491 1450 1369 1292 1209 1076 864 803 713 721 675 616 594 470 115 77 100 118 345 189 0 3 0 0 0 0 0 67 65 0 0 0 0 0 0 0 0 0 0 0 0 0 0 0 0 0
0 5 1 1 0 0 18 0 0 0 0 0 0 0 0 0 0 0 0 0 1 123 469 456 332 693 1486 1529 1780 1890 1824 1819 1735 1696 1587 1523 1564 1597 1571 1523 1485 1385 1326 1366 1242 848 698 747 675 644 503 632 667 470 350 266 279 135 318 266 153 33 0 0 0 0 0 180 182 190 69 0 0 0 0 0 0 0 0 0 0 0 0 0 0 0
1 1 4 0 0 0 0 0 15 0 0 0 0 0 0 0 0 0 0 0 0 4 480 365 230 780 1518 1496 1690 1835 1682 1630 1595 1484 1486 1393 1448 1517 1507 1505 1432 1345 1184 1087 1024 847 608 542 581 595 500 410 548 640 513 256 205 121 267 281 255 120 0 0 0 0 0 6 209 238 207 0 0 0 0 0 0 0 0 0 0 0 0 0 0 0
2 1 12 0 0 0 0 1 7 2 0 0 0 0 0 0 0 0 0 0 0 0 54 118 192 954 1527 1439 1472 1548 1571 1500 1409 1302 1285 1377 1424 1448 1471 1400 1303 1134 1056 918 856 734 648 557 482 510 539 527 512 539 567 268 148 168 241 282 224 0 0 0 0 0 0 51 240 246 193 180 0 0 0 0 0 0 0 0 0 0 0 0 0 0
1 3 7 0 0 0 0 3 2 1 0 46 139 87 67 23 0 0 0 0 0 0 0 30 294 1199 1354 1406 1312 1344 1345 1329 1285 1307 1275 1258 1285 1357 1320 1258 1173 1036 917 828 857 833 628 442 355 394 493 566 575 505 423 219 165 324 374 343 260 193 102 108 21 120 217 254 267 261 226 56 0 0 0 0 0 0 0 0 0 0 0 0 0 0
3 3 1 0 0 0 0 0 0 0 7 135 136 113 41 4 0 0 0 0 0 0 96 790 1026 1044 1056 1107 998 1136 1072 1123 1068 1121 1226 1250 1203 1265 1208 1213 884 990 883 783 759 760 565 399 304 397 457 475 462 438 441 55 116 112 350 383 260 230 92 91 211 280 265 272 251 232 138 0 0 0 0 0 5 19 0 0 0 0 0 0 0 0
0 0 0 0 0 0 0 0 0 0 138 34 12 3 1 3 6 0 0 0 0 0 0 714 1107 1074 1114 1128 1077 1068 1019 1096 1021 1009 1153 1096 1122 1077 981 1064 1101 1038 931 836 803 738 693 576 381 271 427 658 461 318 314 126 341 299 164 218 141 221 181 249 267 277 276 232 233 148 0 0 0 0 0 17 9 0 0 0 0 0 0 0 0 0
0 0 0 0 0 2 0 0 0 0 0 0 0 20 5 3 3 0 0 0 0 0 0 62 1128 1216 1342 1358 1347 1165 1175 1070 1045 1036 1050 1057 1005 942 1003 1087 1077 1023 962 816 735 751 792 729 487 243 228 393 471 323 259 294 337 306 110 80 110 224 232 248 269 282 241 43 106 0 0 0 0 0 0 0 0 0 0 0 0 0 0 0 0 0
0 0 0 0 0 0 0 0 0 0 0 0 0 0 27 42 0 0 0 0 0 0 0 76 972 1089 1438 1506 1414 1314 1172 1017 849 878 931 988 961 926 941 959 970 957 892 815 710 681 696 623 530 544 503 429 468 497 434 348 314 145 70 110 137 109 143 100 234 220 186 23 0 0 0 0 0 0 0 0 0 0 0 0 0 0 0 0 0 0
0 0 0 0 0 0 0 0 0 0 0 0 0 0 19 1 53 4 0 0 0 59 65 0 478 677 1169 1456 1298 1131 827 668 760 805 868 935 902 901 929 886 852 832 778 717 638 597 620 561 508 449 360 418 471 449 468 394 265 106 54 54 89 139 41 30 66 6 0 0 0 0 0 0 0 0 0 0 0 0 0 0 0 0 0 0 0 0
0 0 0 0 0 0 0 0 0 0 0 0 3 23 7 0 0 0 0 0 26 319 405 214 214 768 994 1089 1047 904 602 443 573 878 845 790 868 907 842 806 788 730 661 565 544 534 554 637 494 355 377 461 496 435 360 317 297 238 56 56 16 28 9 0 0 0 0 0 0 0 0 0 0 0 0 0 0 0 0 0 0 0 0 0 0 0
0 0 0 0 0 0 0 0 0 0 56 72 18 0 0 0 0 0 0 0 316 380 428 277 115 793 1056 995 879 1008 570 386 571 708 772 658 703 830 833 759 712 644 593 516 454 378 490 626 457 336 351 398 337 310 268 253 152 96 161 178 0 0 0 0 0 0 0 0 0 0 0 0 0 0 0 0 0 0 0 0 0 0 0 0 0 0
0 0 0 0 0 0 0 0 0 81 138 320 42 30 4 0 0 0 535 324 495 509 437 458 397 30 896 896 837 813 600 515 487 639 656 611 637 641 691 707 680 613 594 497 396 316 344 441 423 364 402 335 308 289 264 104 141 113 239 137 64 5 0 0 0 0 0 0 0 0 0 0 0 0 0 0 0 0 0 0 0 0 0 0 0 0
0 0 0 0 0 0 0 0 0 0 140 313 48 5 0 0 172 269 579 476 578 420 490 596 757 331 112 721 694 502 398 448 517 618 594 558 530 546 569 614 640 589 484 357 304 298 289 304 385 405 422 328 326 282 151 176 123 147 81 42 56 40 0 0 0 0 0 0 0 0 0 0 0 0 0 0 0 0 0 0 0 0 0 0 0 0
0 0 0 0 0 0 0 0 23 28 278 322 54 0 20 266 486 612 565 614 525 460 451 674 821 719 285 294 521 371 413 498 574 568 564 482 356 428 488 541 582 505 379 275 0 221 236 246 245 288 315 300 328 346 179 238 197 116 58 54 109 66 37 0 0 0 0 0 0 0 0 0 0 0 0 0 0 0 0 0 0 0 0 0 0 0
0 0 32 4 0 0 115 167 188 388 548 803 880 646 552 616 609 537 546 467 533 458 496 645 771 764 425 564 541 495 476 448 507 566 569 474 361 376 405 469 493 419 283 48 34 150 204 290 315 302 300 320 396 192 231 218 165 126 79 111 108 50 35 0 0 0 0 0 0 0 0 0 0 0 0 0 0 0 0 0 0 0 0 0 0 0
3 3 52 0 120 226 327 419 376 293 322 522 678 706 735 627 566 587 500 509 425 423 578 612 853 771 544 302 761 597 456 513 530 572 551 468 378 290 318 336 372 347 233 0 100 149 223 240 306 352 432 468 411 106 153 133 122 122 134 144 103 42 0 0 0 0 0 0 0 0 0 0 0 0 0 0 0 0 0 0 0 0 0 0 0 0
4 0 0 0 11 0 63 202 302 140 182 569 645 678 643 526 539 393 357 381 423 455 558 662 818 856 760 656 601 630 659 517 487 495 493 467 420 344 299 285 278 138 0 0 65 94 157 176 243 380 492 186 111 71 87 116 94 124 122 138 107 38 0 0 0 0 0 0 0 0 0 0 0 0 0 0 0 0 0 0 0 0 0 0 0 0
6 84 0 2 0 0 0 14 247 142 130 68 281 79 245 436 264 149 378 527 455 458 615 583 698 775 764 834 696 636 546 478 488 426 447 441 405 291 70 0 0 0 32 26 65 68 110 176 285 400 393 392 265 137 104 116 126 136 120 122 61 0 0 0 0 0 0 0 0 0 0 0 0 0 0 0 0 0 0 0 0 0 0 0 0 0
0 26 2 26 3 106 188 295 398 408 386 173 214 320 427 486 484 244 552 536 475 501 689 610 596 674 767 629 726 687 635 554 450 493 468 416 324 138 0 0 0 0 34 13 50 54 98 164 280 376 430 394 205 145 162 124 96 83 129 84 8 0 0 0 0 0 0 0 0 0 0 0 0 0 0 0 0 0 0 0 0 0 0 0 0 0
113 240 307 0 1 37 46 81 128 109 203 75 284 429 592 488 502 353 382 444 438 479 403 561 493 412 571 689 701 635 672 633 593 479 390 339 0 0 0 0 0 10 5 2 25 54 84 201 322 414 429 457 267 196 144 172 93 122 131 26 3 0 0 1 0 0 0 0 0 0 0 0 0 0 0 0 0 0 0 0 0 0 0 0 0 0
292 69 261 0 0 106 298 384 496 188 119 346 433 418 510 427 406 399 489 487 436 240 312 332 411 556 506 739 738 694 639 549 506 436 383 275 60 0 0 0 0 1 4 0 5 60 175 343 422 506 290 263 141 133 108 272 124 165 150 100 34 4 4 5 0 0 0 0 0 0 0 0 0 0 0 0 0 0 0 0 0 0 0 0 0 0
Wind_Speed
nan nan nan nan nan nan nan nan nan nan nan nan nan nan nan nan nan nan nan nan nan nan nan nan nan 32 37 38 35 36 36 38 36 34 33 32 31 30 31 30 30 32 33 33 34 35 37 39 36 39 41 40 39 36 32 30 29 29 29 29 27 25 26 28 28 29 30 30 30 31 30 29 26 25 26 28 28 29 27 24 21 18 20 17 8 5
nan nan nan nan nan nan nan nan nan nan nan nan nan nan nan nan nan nan nan nan nan nan nan nan nan nan 37 37 37 38 38 35 32 31 31 31 29 30 33 32 30 30 32 33 35 35 37 36 36 38 40 40 39 32 29 28 28 28 29 29 26 23 25 27 29 30 29 28 30 31 30 30 29 26 28 29 29 31 29 25 22 18 14 12 12 13
nan nan nan nan nan nan nan nan nan nan nan nan nan nan nan nan nan nan nan nan nan nan nan nan nan nan 35 37 38 38 35 31 29 30 28 31 30 30 31 33 32 32 32 31 33 34 36 35 35 35 36 37 36 34 30 29 29 29 28 27 23 22 26 28 30 30 29 28 31 30 28 31 31 31 29 28 28 28 26 22 21 17 13 16 15 17
nan nan nan nan nan nan nan nan nan nan nan nan nan nan nan nan nan nan nan nan nan nan nan nan nan 34 37 40 40 38 37 34 30 28 28 28 31 29 29 30 32 32 32 32 33 32 34 33 33 34 35 36 36 34 31 28 29 29 28 26 24 23 26 29 28 29 28 30 31 32 31 31 32 33 31 29 26 23 19 21 22 22 21 19 18 20
nan nan nan nan nan nan nan nan nan nan nan nan nan nan nan nan nan nan nan nan nan nan nan 35 33 32 38 40 39 38 38 38 33 31 29 28 29 29 29 30 30 30 31 34 34 31 31 31 32 34 35 34 32 31 29 28 29 28 27 25 25 26 27 27 27 29 30 31 30 31 31 31 32 31 30 27 24 22 24 25 27 26 23 21 21 21
nan nan nan nan nan nan nan nan nan nan nan nan nan nan nan nan nan nan nan nan nan nan 32 38 33 33 35 37 40 38 38 36 31 32 28 29 29 28 31 33 32 30 27 30 30 28 26 26 29 32 34 32 29 28 27 28 28 28 26 24 23 25 23 21 22 26 27 26 27 27 28 29 27 26 25 25 23 23 23 24 23 24 22 22 nan nan
nan nan nan nan nan nan nan nan nan nan nan nan nan nan nan nan nan nan nan nan nan nan 26 nan 33 33 38 32 32 33 32 33 30 29 29 30 27 25 29 32 32 31 29 29 28 25 24 24 26 26 29 32 30 28 27 26 27 27 24 21 20 22 21 18 20 22 24 24 24 26 28 29 28 27 23 21 22 21 22 23 23 20 nan nan nan nan
nan nan nan nan nan nan nan nan nan nan nan nan nan nan nan nan nan nan nan nan nan nan nan nan 35 37 36 24 14 21 26 29 30 29 28 28 26 24 27 30 31 30 29 29 28 25 21 21 22 23 25 26 26 27 27 25 25 27 23 19 20 21 21 21 23 22 21 23 23 26 27 27 27 26 24 23 21 21 23 23 20 nan nan nan nan nan
nan nan nan nan nan nan nan nan nan nan nan nan nan nan nan nan nan nan nan nan nan nan nan nan 47 43 39 29 22 30 30 25 24 26 25 26 26 25 26 28 29 29 30 31 29 25 22 21 22 22 20 18 20 22 24 24 25 24 21 19 19 19 20 23 24 24 21 20 22 23 24 25 22 21 20 20 21 21 22 nan nan nan nan nan nan nan
nan nan nan nan nan nan nan nan nan nan nan nan nan nan nan nan nan nan nan nan nan nan nan nan nan nan 41 39 32 33 32 25 22 23 23 25 26 25 26 28 29 29 30 30 28 25 22 21 22 20 18 17 16 18 20 22 22 20 18 17 15 14 16 19 22 23 22 20 21 22 21 24 20 17 16 17 19 19 18 nan nan nan nan nan nan nan
nan nan nan nan nan nan nan nan nan nan nan nan nan nan nan nan nan nan nan nan nan nan nan nan nan nan 40 34 35 35 29 27 28 25 21 22 23 24 26 29 27 29 29 27 26 23 23 22 21 20 19 18 17 16 18 19 18 17 15 13 13 14 15 16 17 17 19 18 18 18 16 17 18 16 17 19 19 nan nan nan nan nan nan nan nan nan
nan nan nan nan nan nan nan nan nan nan nan nan nan nan nan nan nan nan nan nan nan nan nan nan nan nan nan 33 29 24 25 30 35 31 27 24 23 24 25 23 24 26 27 26 25 24 23 21 19 18 18 17 16 16 18 17 17 16 14 13 17 17 15 13 12 12 15 18 18 17 16 16 17 18 20 21 19 nan nan nan nan nan nan nan nan nan
nan nan nan nan nan nan nan nan nan nan nan nan nan nan nan nan nan nan nan nan nan nan nan nan nan nan nan 33 25 16 21 29 29 32 32 32 28 25 23 23 21 22 24 23 22 22 21 19 18 16 16 16 15 16 17 16 15 14 14 16 20 17 13 13 12 13 15 17 16 15 15 16 19 21 21 20 19 nan nan nan nan nan nan nan nan nan
nan nan nan nan nan nan nan nan nan nan nan nan nan nan nan nan nan nan nan nan nan nan nan nan nan nan nan 28 26 20 17 25 27 30 36 36 31 26 24 22 21 21 20 20 21 21 20 19 17 15 15 15 15 16 16 15 14 13 16 18 20 18 14 14 13 12 14 16 16 17 20 20 19 20 20 nan nan nan nan nan nan nan nan nan nan nan
nan nan nan nan nan nan nan nan nan nan nan nan nan nan nan nan nan nan nan nan nan nan nan nan nan nan nan 23 20 20 20 22 25 31 37 37 33 28 24 23 21 20 19 20 22 23 21 19 18 16 15 16 15 16 16 14 14 16 19 20 20 18 14 14 13 13 15 16 18 20 20 18 17 18 18 19 20 nan nan nan nan nan nan nan nan nan
nan nan nan nan nan nan nan nan nan nan nan nan nan nan nan nan nan nan nan nan nan nan nan nan nan nan nan 18 23 17 19 23 26 33 39 39 35 30 26 23 19 18 20 21 23 24 21 19 18 16 16 17 16 16 13 15 17 18 19 19 19 18 14 13 13 13 15 16 16 17 17 16 17 17 18 20 nan nan nan nan nan nan nan nan nan nan
nan nan nan nan nan nan nan nan nan nan nan nan nan nan nan nan nan nan nan nan nan nan nan nan nan nan nan 32 24 28 27 27 31 36 37 35 33 31 27 22 19 18 19 21 23 22 20 20 20 17 17 17 17 14 13 16 17 18 18 19 19 17 14 12 12 12 12 13 14 14 15 16 nan nan nan nan nan nan nan nan nan nan nan nan nan nan
nan nan nan nan nan nan nan nan nan nan nan nan nan nan nan nan nan nan nan nan nan nan nan nan nan nan 26 21 30 29 34 35 36 35 31 26 25 25 23 21 20 20 21 23 24 23 21 21 21 18 17 18 17 16 17 17 16 16 18 20 18 16 nan nan nan 12 11 13 14 nan nan nan nan nan nan nan nan nan nan nan nan nan nan nan nan nan
nan nan nan nan nan nan nan nan nan nan nan nan nan nan nan nan nan nan nan nan nan nan nan nan nan nan nan 22 nan 22 33 40 39 38 32 24 16 16 19 21 21 22 23 24 24 22 21 20 19 19 19 19 18 18 18 17 18 19 19 18 15 14 12 nan nan 11 12 13 nan nan nan nan nan nan nan nan nan nan nan nan nan nan nan nan nan nan
nan nan nan nan nan nan nan nan nan nan nan nan nan nan nan nan nan nan nan nan nan nan nan nan nan nan nan 27 nan nan 36 41 42 39 33 26 20 18 19 20 20 18 18 21 21 20 20 19 20 20 21 21 21 20 18 19 19 21 20 17 14 13 12 nan nan nan nan nan nan nan nan nan nan nan nan nan nan nan nan nan nan nan nan nan nan nan
nan nan nan nan nan nan nan nan nan nan nan nan nan nan nan nan nan nan nan nan nan nan nan nan nan nan nan nan 33 40 45 47 48 41 33 27 23 21 19 18 16 16 16 19 20 20 20 20 20 22 22 22 21 20 19 19 21 20 18 16 14 14 nan nan nan nan nan nan nan nan nan nan nan nan nan nan nan nan nan nan nan nan nan nan nan nan
nan nan nan nan nan nan nan nan nan nan nan nan nan nan nan nan nan nan nan nan nan nan nan nan nan nan nan nan 26 34 40 46 48 46 38 33 28 22 20 19 17 17 18 20 21 21 21 21 22 24 24 23 22 20 21 20 20 19 16 14 14 14 12 11 11 nan nan nan nan nan nan nan nan nan nan nan nan nan nan nan nan nan nan nan nan nan
nan nan nan nan nan nan nan nan nan nan nan nan nan nan nan nan nan nan nan nan nan nan nan nan nan nan 32 nan 26 33 36 42 46 47 42 39 35 31 29 24 18 20 21 22 24 22 22 22 22 25 27 26 24 22 22 22 19 18 17 16 15 15 15 nan nan nan nan nan nan nan nan nan nan nan nan nan nan nan nan nan nan nan nan nan nan nan
29 nan nan nan nan nan nan nan nan nan nan nan nan nan nan nan nan nan nan nan nan nan nan nan nan nan 29 32 33 36 38 44 48 46 44 38 33 32 33 29 26 25 26 28 26 24 24 24 24 26 27 27 26 24 23 22 20 19 19 17 16 nan nan nan nan nan nan nan nan nan nan nan nan nan nan nan nan nan nan nan nan nan nan nan nan nan
nan nan nan nan nan nan nan nan nan nan nan nan nan nan nan nan nan nan nan nan nan nan nan nan nan nan 27 36 46 45 40 45 48 46 46 40 30 26 28 30 30 32 33 32 30 27 27 26 27 26 27 28 27 25 24 22 20 21 20 18 nan nan nan nan nan nan nan nan nan nan nan nan nan nan nan nan nan nan nan nan nan nan nan nan nan nan
nan nan nan nan nan nan nan nan nan nan nan nan nan nan nan nan nan nan nan nan nan nan nan nan 20 18 26 36 43 43 38 41 44 44 40 41 34 26 24 26 28 29 30 31 30 28 28 27 27 27 28 28 28 26 25 22 21 21 22 22 nan nan nan nan nan nan nan nan nan nan nan nan nan nan nan nan 28 29 nan nan nan nan nan nan nan nan
nan nan nan nan nan nan nan nan nan nan nan nan nan nan nan nan nan nan nan nan nan nan nan nan 22 20 27 38 42 44 45 47 44 41 40 36 30 23 19 19 22 24 27 30 30 28 28 28 28 28 29 29 29 26 24 22 23 25 25 24 nan nan nan nan nan nan nan nan nan nan nan nan nan nan nan nan nan nan nan nan nan nan nan nan nan nan
nan nan nan nan nan nan nan nan nan nan nan nan nan nan nan nan nan nan nan nan nan nan nan 27 26 27 22 31 32 39 45 47 43 41 37 34 31 23 17 16 17 18 23 27 30 31 30 30 30 30 30 30 28 25 nan 25 28 27 25 nan nan nan nan nan nan nan nan nan nan nan nan nan nan nan nan nan nan nan nan nan nan nan nan nan nan nan
nan nan nan nan nan nan nan nan nan nan nan nan nan nan nan nan nan nan nan nan nan nan 30 25 32 31 29 30 31 33 37 36 34 34 33 32 30 28 26 24 22 22 23 26 28 30 31 31 31 31 30 30 28 27 28 nan nan 26 24 nan nan nan nan nan nan nan nan nan nan nan nan nan nan nan nan nan nan nan nan nan nan nan nan nan nan nan
nan nan nan nan nan nan nan nan nan nan nan nan nan nan nan nan nan nan nan nan nan 31 31 30 32 34 34 35 35 33 34 36 32 29 27 25 23 23 25 25 25 27 28 29 28 27 30 32 33 32 30 29 28 30 32 nan nan 25 24 23 nan nan nan nan nan nan nan nan nan nan nan nan nan nan nan nan nan nan nan nan nan nan nan nan nan nan
nan nan nan nan nan nan nan nan nan nan nan nan nan nan nan nan nan nan nan nan nan 33 31 36 35 39 39 42 43 40 40 41 38 32 28 24 21 21 22 22 22 24 26 28 30 30 30 30 31 31 29 29 30 32 31 29 26 25 25 23 24 nan nan nan nan nan nan 24 23 23 nan nan nan nan nan nan nan nan nan nan nan nan nan nan nan nan
nan nan nan nan nan nan nan nan nan nan nan nan nan nan nan nan nan nan nan nan nan nan 30 37 39 41 39 42 46 43 43 43 41 37 34 30 27 26 24 22 21 21 23 25 28 31 32 29 28 28 30 31 31 30 29 28 26 26 25 23 23 23 nan nan nan nan nan nan 24 25 26 nan nan nan nan nan nan nan nan nan nan nan nan nan nan nan
nan nan nan nan nan nan nan nan nan nan nan nan nan nan nan nan nan nan nan nan nan nan nan 33 32 36 40 39 43 37 40 41 40 37 34 32 30 29 28 25 23 24 26 27 28 29 29 29 29 30 30 31 30 29 28 29 28 26 25 24 24 nan nan nan nan nan nan nan 25 26 26 28 nan nan nan nan nan nan nan nan nan nan nan nan nan nan
nan nan nan nan nan nan nan nan nan nan nan nan 25 nan nan nan nan nan nan nan nan nan nan nan 37 40 41 38 39 31 28 28 29 25 27 30 29 28 28 27 26 28 29 28 28 28 30 32 31 30 29 29 30 31 32 32 29 26 26 26 27 29 28 28 nan 25 25 25 26 26 27 nan nan nan nan nan nan nan nan nan nan nan nan nan nan nan
nan nan nan nan nan nan nan nan nan nan nan 28 28 31 nan nan nan nan nan nan nan nan nan 44 45 41 36 35 39 37 34 32 27 25 19 21 25 25 27 27 27 28 28 27 26 26 29 34 36 31 29 30 31 32 33 nan 29 27 28 29 31 32 nan nan 27 26 27 27 26 27 28 nan nan nan nan nan nan nan nan nan nan nan nan nan nan nan
nan nan nan nan nan nan nan nan nan nan 31 nan nan nan nan nan nan nan nan nan nan nan nan 41 39 43 41 44 46 45 41 36 33 28 25 23 23 25 25 23 24 26 27 27 28 28 29 33 35 33 30 31 33 32 32 32 30 31 32 33 33 33 31 30 30 31 29 28 28 30 nan nan nan nan nan nan nan nan nan nan nan nan nan nan nan nan
nan nan nan nan nan nan nan nan nan nan nan nan nan nan nan nan nan nan nan nan nan nan nan nan 43 47 47 48 50 48 45 41 39 34 31 32 31 30 27 23 23 24 27 27 29 29 30 31 32 34 34 34 33 32 32 32 31 32 35 nan 31 32 32 34 35 34 32 nan 33 nan nan nan nan nan nan nan nan nan nan nan nan nan nan nan nan nan
nan nan nan nan nan nan nan nan nan nan nan nan nan nan nan nan nan nan nan nan nan nan nan nan 45 49 52 51 51 50 49 46 39 30 26 28 31 32 28 27 25 25 24 26 25 28 30 32 34 34 34 36 35 33 34 34 34 36 nan 32 33 33 35 40 40 37 36 nan nan nan nan nan nan nan nan nan nan nan nan nan nan nan nan nan nan nan
nan nan nan nan nan nan nan nan nan nan nan nan nan nan nan nan nan nan nan nan nan nan nan nan 41 48 51 50 47 48 45 41 33 29 26 28 30 30 30 29 29 27 26 26 27 27 29 31 33 35 36 37 37 35 35 36 36 35 nan nan nan 38 nan nan nan nan nan nan nan nan nan nan nan nan nan nan nan nan nan nan nan nan nan nan nan nan
nan nan nan nan nan nan nan nan nan nan nan nan nan nan nan nan nan nan nan nan nan 36 39 42 39 41 45 45 44 43 41 34 32 28 28 32 34 33 33 31 30 29 28 28 28 29 30 32 34 33 34 37 36 35 37 36 35 35 nan nan nan nan nan nan nan nan nan nan nan nan nan nan nan nan nan nan nan nan nan nan nan nan nan nan nan nan
nan nan nan nan nan nan nan nan nan nan nan nan nan nan nan nan nan nan nan nan 25 30 36 39 37 35 37 39 38 37 29 29 28 34 37 38 37 34 33 33 32 32 31 30 29 30 31 31 31 33 34 35 35 34 35 35 35 nan 31 29 nan nan nan nan nan nan nan nan nan nan nan nan nan nan nan nan nan nan nan nan nan nan nan nan nan nan
nan nan nan nan nan nan nan nan nan nan 21 23 nan nan nan nan nan nan 23 21 24 31 33 35 36 nan 33 29 31 29 26 30 39 39 37 34 35 35 37 37 35 33 33 32 32 31 32 32 33 34 34 33 33 32 32 33 31 28 27 26 nan nan nan nan nan nan nan nan nan nan nan nan nan nan nan nan nan nan nan nan nan nan nan nan nan nan
nan nan nan nan nan nan nan nan nan nan 23 22 nan nan nan nan 22 22 24 25 28 31 35 35 36 31 29 28 25 30 35 36 36 35 32 32 34 35 35 34 33 33 34 34 31 30 32 33 33 33 33 31 30 29 28 28 27 24 nan nan nan nan nan nan nan nan nan nan nan nan nan nan nan nan nan nan nan nan nan nan nan nan nan nan nan nan
nan nan nan nan nan nan nan nan nan nan 21 24 nan nan nan 23 20 23 27 29 31 34 35 36 34 30 27 29 28 33 37 36 35 34 33 32 34 35 34 32 32 33 33 32 nan 31 31 33 32 32 30 28 27 26 24 24 25 24 nan nan 21 nan nan nan nan nan nan nan nan nan nan nan nan nan nan nan nan nan nan nan nan nan nan nan nan nan
nan nan nan nan nan nan 24 22 19 21 24 27 26 23 23 23 26 28 27 28 30 31 32 33 33 31 27 31 34 40 38 35 32 29 29 28 34 36 35 33 33 34 33 nan nan 31 30 31 32 30 28 26 25 23 23 24 25 26 nan 21 22 nan nan nan nan nan nan nan nan nan nan nan nan nan nan nan nan nan nan nan nan nan nan nan nan nan
nan nan nan nan 23 26 26 23 21 24 24 28 28 26 25 26 28 28 28 28 29 27 29 31 30 31 34 33 37 35 37 35 34 29 28 29 32 35 38 39 38 37 34 nan 32 30 30 30 30 29 28 26 24 24 24 25 25 26 24 22 23 nan nan nan nan nan nan nan nan nan nan nan nan nan nan nan nan nan nan nan nan nan nan nan nan nan
nan nan nan nan nan nan nan 23 27 22 20 25 27 29 27 24 24 25 26 24 26 27 29 29 30 31 36 38 38 37 35 31 31 29 29 29 30 32 34 37 37 36 nan nan nan nan 30 30 29 28 27 26 25 nan nan 25 nan 26 24 23 23 nan nan nan nan nan nan nan nan nan nan nan nan nan nan nan nan nan nan nan nan nan nan nan nan nan
nan nan nan nan nan nan nan nan 20 20 21 nan 25 nan 27 26 25 24 23 25 26 26 27 27 28 30 33 36 37 38 33 26 26 25 27 27 28 30 nan nan nan nan nan nan nan nan 30 29 28 27 26 26 25 25 25 25 26 26 24 23 nan nan nan nan nan nan nan nan nan nan nan nan nan nan nan nan nan nan nan nan nan nan nan nan nan nan
nan nan nan nan nan 22 25 23 21 22 22 25 27 27 26 29 27 25 23 23 23 25 27 28 28 24 27 29 31 33 32 25 23 24 27 28 28 28 nan nan nan nan nan nan nan nan nan 29 28 27 27 25 25 26 26 26 nan nan 26 nan nan nan nan nan nan nan nan nan nan nan nan nan nan nan nan nan nan nan nan nan nan nan nan nan nan nan
21 19 19 nan nan nan nan nan 17 19 17 nan 22 22 26 28 29 26 23 22 24 24 24 26 30 26 25 26 27 28 29 25 23 25 26 26 nan nan nan nan nan nan nan nan nan nan nan 28 29 28 27 26 26 27 27 27 nan 27 27 nan nan nan nan nan nan nan nan nan nan nan nan nan nan nan nan nan nan nan nan nan nan nan nan nan nan nan
20 nan 20 nan nan 17 12 10 13 11 17 20 19 21 24 27 28 26 22 24 25 25 24 25 29 30 29 26 24 26 25 26 26 27 28 27 nan nan nan nan nan nan nan nan nan nan 28 29 30 30 29 27 28 29 29 29 28 28 29 31 nan nan nan nan nan nan nan nan nan nan nan nan nan nan nan nan nan nan nan nan nan nan nan nan nan nan
Wind_Direction
nan nan nan nan nan nan nan nan nan nan nan nan nan nan nan nan nan nan nan nan nan nan nan nan nan 263 260 261 260 260 258 262 265 267 267 266 263 263 266 273 278 281 280 270 265 266 269 270 267 265 262 259 258 256 258 263 265 270 276 278 275 272 276 276 274 272 275 276 273 267 266 264 261 263 264 266 266 264 266 263 266 271 262 252 276 305
nan nan nan nan nan nan nan nan nan nan nan nan nan nan nan nan nan nan nan nan nan nan nan nan nan nan 268 261 259 260 265 270 271 266 268 269 267 267 272 274 277 278 272 273 269 266 268 269 267 263 264 264 264 258 258 264 265 270 276 275 277 277 275 272 272 275 274 275 275 273 272 268 265 265 263 261 261 261 257 253 252 257 251 253 268 264
nan nan nan nan nan nan nan nan nan nan nan nan nan nan nan nan nan nan nan nan nan nan nan nan nan nan 276 264 259 264 265 267 271 276 276 274 271 270 272 277 278 276 277 275 271 269 271 274 271 269 268 265 263 263 260 259 264 273 276 274 280 284 276 271 274 275 277 271 271 271 273 272 265 260 261 263 260 259 256 253 257 261 258 260 263 255
nan nan nan nan nan nan nan nan nan nan nan nan nan nan nan nan nan nan nan nan nan nan nan nan nan 260 266 254 250 250 253 259 260 261 265 269 277 281 286 288 288 280 277 275 270 267 273 278 274 271 271 269 268 264 262 262 265 272 277 279 286 285 278 275 273 272 272 271 268 266 268 267 266 265 261 259 258 255 255 257 256 252 253 255 249 244
nan nan nan nan nan nan nan nan nan nan nan nan nan nan nan nan nan nan nan nan nan nan nan 248 249 254 259 263 254 250 252 257 258 260 260 255 253 261 265 268 278 279 274 272 268 263 269 272 272 270 268 270 272 268 266 265 264 269 277 281 288 284 279 275 274 275 277 274 266 265 267 268 268 261 257 258 256 256 257 250 239 239 243 241 238 240
nan nan nan nan nan nan nan nan nan nan nan nan nan nan nan nan nan nan nan nan nan nan 245 261 238 249 256 256 260 254 251 255 262 268 268 267 265 264 269 275 276 277 272 267 268 270 269 266 266 267 269 270 271 270 266 266 265 272 277 282 282 276 275 278 278 282 282 277 272 273 272 267 263 260 253 254 256 253 246 240 238 238 237 238 nan nan
nan nan nan nan nan nan nan nan nan nan nan nan nan nan nan nan nan nan nan nan nan nan 238 nan 253 245 242 227 227 248 258 262 262 268 270 272 273 267 270 276 279 282 272 266 265 267 269 266 267 270 273 272 270 267 269 268 267 272 278 280 276 274 275 278 282 283 284 279 273 275 275 268 262 258 245 243 245 240 235 243 247 244 nan nan nan nan
nan nan nan nan nan nan nan nan nan nan nan nan nan nan nan nan nan nan nan nan nan nan nan nan 250 254 254 255 247 249 260 267 264 266 272 273 276 274 275 279 282 280 278 274 271 270 267 261 263 274 280 276 269 267 271 270 267 271 276 279 277 274 280 280 280 282 285 284 276 276 275 267 260 255 253 249 243 238 247 256 257 nan nan nan nan nan
nan nan nan nan nan nan nan nan nan nan nan nan nan nan nan nan nan nan nan nan nan nan nan nan 250 242 246 257 266 266 263 263 271 273 277 278 279 278 279 283 286 287 283 278 275 278 278 266 257 268 281 278 273 271 274 272 266 267 271 274 274 277 281 279 275 274 272 273 277 277 275 268 258 257 251 248 249 254 262 nan nan nan nan nan nan nan
nan nan nan nan nan nan nan nan nan nan nan nan nan nan nan nan nan nan nan nan nan nan nan nan nan nan 243 250 257 259 258 262 270 281 281 283 284 283 283 282 287 285 282 281 281 283 283 272 264 266 272 277 275 269 270 269 265 265 269 273 280 282 278 273 270 266 265 267 270 269 269 268 260 252 251 256 264 265 265 nan nan nan nan nan nan nan
nan nan nan nan nan nan nan nan nan nan nan nan nan nan nan nan nan nan nan nan nan nan nan nan nan nan 248 258 269 267 263 275 266 268 276 284 280 277 279 288 290 291 290 286 285 285 283 276 268 268 276 276 272 272 274 270 267 261 259 269 285 293 284 275 271 266 264 262 262 260 253 249 251 256 269 272 268 nan nan nan nan nan nan nan nan nan
nan nan nan nan nan nan nan nan nan nan nan nan nan nan nan nan nan nan nan nan nan nan nan nan nan nan nan 262 266 276 288 280 276 280 288 292 289 279 283 289 290 289 287 284 283 282 284 279 269 266 273 279 282 284 281 274 268 257 250 269 293 297 293 281 268 256 254 253 248 236 229 236 251 266 271 269 263 nan nan nan nan nan nan nan nan nan
nan nan nan nan nan nan nan nan nan nan nan nan nan nan nan nan nan nan nan nan nan nan nan nan nan nan nan 273 292 306 267 269 271 277 285 285 285 287 288 291 284 279 281 282 280 279 280 281 281 280 282 285 292 291 288 279 268 259 262 280 293 290 282 277 268 257 248 236 222 223 241 259 267 266 264 262 259 nan nan nan nan nan nan nan nan nan
nan nan nan nan nan nan nan nan nan nan nan nan nan nan nan nan nan nan nan nan nan nan nan nan nan nan nan 249 306 321 310 303 295 281 282 281 281 285 291 286 278 277 277 275 275 273 270 273 280 285 286 287 289 291 289 284 279 273 272 278 283 286 279 270 262 252 239 225 225 247 268 272 267 259 256 nan nan nan nan nan nan nan nan nan nan nan
nan nan nan nan nan nan nan nan nan nan nan nan nan nan nan nan nan nan nan nan nan nan nan nan nan nan nan 238 295 331 318 299 292 278 279 275 271 272 279 283 283 279 273 273 270 268 269 273 280 280 279 280 284 289 291 288 278 273 275 278 283 285 278 268 261 254 247 245 254 266 271 268 261 259 257 255 256 nan nan nan nan nan nan nan nan nan
nan nan nan nan nan nan nan nan nan nan nan nan nan nan nan nan nan nan nan nan nan nan nan nan nan nan nan 246 285 281 273 267 267 271 273 272 270 270 272 285 289 281 275 272 269 269 271 275 274 270 274 278 284 289 287 281 280 279 280 283 283 281 273 267 266 260 261 261 263 267 267 263 263 262 259 258 nan nan nan nan nan nan nan nan nan nan
nan nan nan nan nan nan nan nan nan nan nan nan nan nan nan nan nan nan nan nan nan nan nan nan nan nan nan 211 250 271 270 266 266 271 279 278 275 274 275 277 278 279 277 273 272 272 276 273 267 266 273 279 285 287 282 281 283 285 285 287 285 275 265 263 261 262 261 261 258 255 257 260 nan nan nan nan nan nan nan nan nan nan nan nan nan nan
nan nan nan nan nan nan nan nan nan nan nan nan nan nan nan nan nan nan nan nan nan nan nan nan nan nan 218 218 209 251 256 263 266 267 282 287 276 271 269 270 274 277 275 272 269 272 275 273 270 267 272 280 286 284 279 281 280 278 284 288 284 276 nan nan nan 258 258 258 256 nan nan nan nan nan nan nan nan nan nan nan nan nan nan nan nan nan
nan nan nan nan nan nan nan nan nan nan nan nan nan nan nan nan nan nan nan nan nan nan nan nan nan nan nan 230 nan 234 258 254 264 267 279 287 285 269 262 269 274 278 275 269 268 269 271 271 268 269 275 278 280 279 279 279 276 276 279 279 273 273 271 nan nan 250 250 250 nan nan nan nan nan nan nan nan nan nan nan nan nan nan nan nan nan nan
nan nan nan nan nan nan nan nan nan nan nan nan nan nan nan nan nan nan nan nan nan nan nan nan nan nan nan 239 nan nan 274 271 273 275 282 289 293 284 280 275 279 284 279 270 266 267 269 269 271 272 275 280 282 283 284 282 277 276 277 273 262 259 267 nan nan nan nan nan nan nan nan nan nan nan nan nan nan nan nan nan nan nan nan nan nan nan
nan nan nan nan nan nan nan nan nan nan nan nan nan nan nan nan nan nan nan nan nan nan nan nan nan nan nan nan 262 277 281 279 280 283 284 285 283 289 293 289 280 276 271 269 270 274 274 273 274 273 270 273 275 279 283 281 279 276 272 264 257 266 nan nan nan nan nan nan nan nan nan nan nan nan nan nan nan nan nan nan nan nan nan nan nan nan
nan nan nan nan nan nan nan nan nan nan nan nan nan nan nan nan nan nan nan nan nan nan nan nan nan nan nan nan 258 275 282 279 279 283 281 281 282 288 287 293 286 270 266 270 274 280 278 273 274 273 272 274 277 282 283 279 275 272 266 260 259 265 278 287 286 nan nan nan nan nan nan nan nan nan nan nan nan nan nan nan nan nan nan nan nan nan
nan nan nan nan nan nan nan nan nan nan nan nan nan nan nan nan nan nan nan nan nan nan nan nan nan nan 223 nan 243 264 278 278 278 280 280 278 282 281 281 282 274 271 272 275 278 279 277 273 273 275 278 280 282 281 280 276 273 268 264 264 260 261 268 nan nan nan nan nan nan nan nan nan nan nan nan nan nan nan nan nan nan nan nan nan nan nan
185 nan nan nan nan nan nan nan nan nan nan nan nan nan nan nan nan nan nan nan nan nan nan nan nan nan 209 219 231 248 268 272 270 277 277 279 279 274 271 271 268 265 268 274 274 272 275 275 273 275 276 276 278 280 279 275 271 266 263 262 255 nan nan nan nan nan nan nan nan nan nan nan nan nan nan nan nan nan nan nan nan nan nan nan nan nan
nan nan nan nan nan nan nan nan nan nan nan nan nan nan nan nan nan nan nan nan nan nan nan nan nan nan 202 218 233 235 255 260 263 266 274 275 273 270 266 264 262 267 270 274 275 274 275 275 276 275 273 275 276 275 275 276 273 269 265 258 nan nan nan nan nan nan nan nan nan nan nan nan nan nan nan nan nan nan nan nan nan nan nan nan nan nan
nan nan nan nan nan nan nan nan nan nan nan nan nan nan nan nan nan nan nan nan nan nan nan nan 213 202 202 219 241 250 245 251 257 263 266 274 277 273 265 265 266 266 269 273 274 274 276 273 270 269 271 272 272 273 275 275 274 266 259 262 nan nan nan nan nan nan nan nan nan nan nan nan nan nan nan nan 274 275 nan nan nan nan nan nan nan nan
nan nan nan nan nan nan nan nan nan nan nan nan nan nan nan nan nan nan nan nan nan nan nan nan 229 219 216 221 239 248 249 254 256 261 267 269 274 279 280 278 276 271 269 271 271 268 267 268 270 270 270 269 270 271 273 274 266 261 262 262 nan nan nan nan nan nan nan nan nan nan nan nan nan nan nan nan nan nan nan nan nan nan nan nan nan nan
nan nan nan nan nan nan nan nan nan nan nan nan nan nan nan nan nan nan nan nan nan nan nan 210 229 224 216 225 235 253 253 256 261 266 270 277 285 286 283 278 280 274 266 263 265 266 267 268 267 268 268 269 270 270 nan 263 263 264 262 nan nan nan nan nan nan nan nan nan nan nan nan nan nan nan nan nan nan nan nan nan nan nan nan nan nan nan
nan nan nan nan nan nan nan nan nan nan nan nan nan nan nan nan nan nan nan nan nan nan 205 216 229 227 218 226 231 245 257 262 267 275 282 287 283 277 274 276 280 280 276 277 276 271 268 266 265 265 264 265 266 267 264 nan nan 262 260 nan nan nan nan nan nan nan nan nan nan nan nan nan nan nan nan nan nan nan nan nan nan nan nan nan nan nan
nan nan nan nan nan nan nan nan nan nan nan nan nan nan nan nan nan nan nan nan nan 210 230 225 229 227 225 225 236 242 247 256 254 255 264 277 285 281 281 284 283 277 276 278 275 269 269 268 266 265 265 264 266 264 260 nan nan 265 265 268 nan nan nan nan nan nan nan nan nan nan nan nan nan nan nan nan nan nan nan nan nan nan nan nan nan nan
nan nan nan nan nan nan nan nan nan nan nan nan nan nan nan nan nan nan nan nan nan 212 221 233 232 226 222 239 240 238 241 247 253 257 265 273 276 277 282 290 288 280 272 270 271 271 265 262 265 268 267 268 268 269 266 265 267 266 267 268 271 nan nan nan nan nan nan 270 272 275 nan nan nan nan nan nan nan nan nan nan nan nan nan nan nan nan
nan nan nan nan nan nan nan nan nan nan nan nan nan nan nan nan nan nan nan nan nan nan 213 228 230 231 228 235 245 248 254 261 266 268 266 267 273 276 283 290 293 286 279 270 264 265 268 267 267 270 270 273 272 269 263 265 264 262 264 267 270 268 nan nan nan nan nan nan 272 274 274 nan nan nan nan nan nan nan nan nan nan nan nan nan nan nan
nan nan nan nan nan nan nan nan nan nan nan nan nan nan nan nan nan nan nan nan nan nan nan 224 226 239 249 248 251 250 257 260 266 271 270 270 274 277 279 282 284 282 283 280 273 269 267 268 267 262 264 269 267 261 261 262 260 258 263 267 262 nan nan nan nan nan nan nan 272 272 270 271 nan nan nan nan nan nan nan nan nan nan nan nan nan nan
nan nan nan nan nan nan nan nan nan nan nan nan 196 nan nan nan nan nan nan nan nan nan nan nan 232 241 248 248 256 257 265 270 270 268 273 275 274 274 270 268 268 273 278 281 283 278 270 263 258 264 271 269 264 265 260 257 256 253 258 261 258 260 260 262 nan 265 269 270 271 271 270 nan nan nan nan nan nan nan nan nan nan nan nan nan nan nan
nan nan nan nan nan nan nan nan nan nan nan 202 203 207 nan nan nan nan nan nan nan nan nan 232 241 245 249 246 252 250 246 247 253 267 268 276 283 282 280 273 271 274 281 282 279 275 273 270 266 261 258 257 257 258 263 nan 262 259 256 255 258 258 nan nan 266 267 268 270 270 268 267 nan nan nan nan nan nan nan nan nan nan nan nan nan nan nan
nan nan nan nan nan nan nan nan nan nan 208 nan nan nan nan nan nan nan nan nan nan nan nan 232 240 249 246 244 247 251 253 254 252 251 261 265 276 284 286 285 285 282 278 274 275 273 271 272 274 272 263 252 256 259 261 261 260 262 261 259 258 256 257 262 266 268 269 268 266 265 nan nan nan nan nan nan nan nan nan nan nan nan nan nan nan nan
nan nan nan nan nan nan nan nan nan nan nan nan nan nan nan nan nan nan nan nan nan nan nan nan 240 244 247 251 255 257 257 254 251 252 256 268 270 276 289 292 289 278 272 267 269 270 269 269 265 264 260 259 260 261 260 261 263 261 263 nan 267 260 259 261 264 265 264 nan 265 nan nan nan nan nan nan nan nan nan nan nan nan nan nan nan nan nan
nan nan nan nan nan nan nan nan nan nan nan nan nan nan nan nan nan nan nan nan nan nan nan nan 242 247 248 252 257 260 259 254 254 257 264 270 273 277 274 272 273 276 274 269 261 262 264 265 263 259 260 263 259 252 256 260 261 264 nan 267 267 267 261 259 256 258 261 nan nan nan nan nan nan nan nan nan nan nan nan nan nan nan nan nan nan nan
nan nan nan nan nan nan nan nan nan nan nan nan nan nan nan nan nan nan nan nan nan nan nan nan 237 246 252 254 256 258 253 254 255 259 265 271 270 279 280 277 275 276 276 277 275 267 264 263 262 261 259 258 256 256 259 264 266 265 nan nan nan 272 nan nan nan nan nan nan nan nan nan nan nan nan nan nan nan nan nan nan nan nan nan nan nan nan
nan nan nan nan nan nan nan nan nan nan nan nan nan nan nan nan nan nan nan nan nan 210 210 218 229 249 255 259 261 257 259 254 253 253 261 264 270 276 279 276 273 273 272 270 269 270 267 262 260 261 263 262 259 259 262 263 263 263 nan nan nan nan nan nan nan nan nan nan nan nan nan nan nan nan nan nan nan nan nan nan nan nan nan nan nan nan
nan nan nan nan nan nan nan nan nan nan nan nan nan nan nan nan nan nan nan nan 215 211 212 214 230 241 255 262 260 259 259 266 266 260 258 258 260 263 265 266 267 268 269 269 268 265 263 264 264 265 263 260 262 262 261 261 264 nan 266 270 nan nan nan nan nan nan nan nan nan nan nan nan nan nan nan nan nan nan nan nan nan nan nan nan nan nan
nan nan nan nan nan nan nan nan nan nan 222 222 nan nan nan nan nan nan 227 223 215 212 212 215 220 nan 256 260 257 264 262 246 255 261 263 262 261 261 264 266 265 262 265 267 266 261 259 260 258 257 257 260 263 263 262 264 267 269 271 274 nan nan nan nan nan nan nan nan nan nan nan nan nan nan nan nan nan nan nan nan nan nan nan nan nan nan
nan nan nan nan nan nan nan nan nan nan 216 221 nan nan nan nan 225 228 222 213 215 214 218 212 218 225 263 269 262 247 244 253 259 264 262 255 257 262 266 270 273 272 270 270 267 262 261 259 262 263 263 263 263 261 261 267 270 270 nan nan nan nan nan nan nan nan nan nan nan nan nan nan nan nan nan nan nan nan nan nan nan nan nan nan nan nan
nan nan nan nan nan nan nan nan nan nan 217 217 nan nan nan 227 227 225 222 215 209 215 216 217 216 222 240 267 267 249 258 252 247 250 248 244 246 250 255 261 264 264 264 265 nan 263 261 261 261 263 265 265 265 263 264 266 265 267 nan nan 262 nan nan nan nan nan nan nan nan nan nan nan nan nan nan nan nan nan nan nan nan nan nan nan nan nan
nan nan nan nan nan nan 223 226 223 221 225 220 225 226 228 223 224 224 226 223 221 213 216 221 216 215 239 250 253 263 261 261 261 262 260 251 250 254 259 263 266 266 267 nan nan 266 260 262 265 263 262 263 269 263 259 258 265 269 nan 265 264 nan nan nan nan nan nan nan nan nan nan nan nan nan nan nan nan nan nan nan nan nan nan nan nan nan
nan nan nan nan 207 213 220 224 229 223 216 220 221 222 225 222 219 222 224 223 224 224 223 223 217 220 227 250 261 258 265 264 262 254 253 252 248 247 251 253 255 258 261 nan 266 266 261 260 259 259 262 263 263 260 258 261 267 272 269 267 267 nan nan nan nan nan nan nan nan nan nan nan nan nan nan nan nan nan nan nan nan nan nan nan nan nan
nan nan nan nan nan nan nan 213 216 215 219 229 222 219 221 222 221 222 220 225 227 223 226 227 228 223 233 236 246 257 264 273 272 265 260 255 252 253 256 258 260 264 nan nan nan nan 258 259 258 258 258 258 257 nan nan 263 nan 267 271 272 272 nan nan nan nan nan nan nan nan nan nan nan nan nan nan nan nan nan nan nan nan nan nan nan nan nan
nan nan nan nan nan nan nan nan 215 216 217 nan 227 nan 222 225 226 221 223 231 226 225 227 239 235 233 238 242 251 256 259 265 274 266 258 255 253 251 nan nan nan nan nan nan nan nan 257 257 257 255 253 255 256 256 258 261 264 270 274 273 nan nan nan nan nan nan nan nan nan nan nan nan nan nan nan nan nan nan nan nan nan nan nan nan nan nan
nan nan nan nan nan 214 214 208 207 217 218 222 226 226 226 229 228 226 223 229 233 230 226 230 242 242 243 251 254 261 262 262 265 265 258 250 248 249 nan nan nan nan nan nan nan nan nan 256 254 253 252 250 250 254 257 261 nan nan 274 nan nan nan nan nan nan nan nan nan nan nan nan nan nan nan nan nan nan nan nan nan nan nan nan nan nan nan
201 207 201 nan nan nan nan nan 207 226 222 nan 219 221 224 226 228 231 226 232 236 235 228 233 231 238 246 254 262 265 267 260 260 264 263 255 nan nan nan nan nan nan nan nan nan nan nan 255 255 253 250 247 248 254 258 261 nan 265 267 nan nan nan nan nan nan nan nan nan nan nan nan nan nan nan nan nan nan nan nan nan nan nan nan nan nan nan
210 nan 211 nan nan 219 230 227 208 228 234 227 223 218 223 228 229 226 230 235 234 236 228 242 243 238 246 251 262 265 264 264 260 257 255 250 nan nan nan nan nan nan nan nan nan nan 257 254 252 251 250 249 251 254 256 258 260 261 261 266 nan nan nan nan nan nan nan nan nan nan nan nan nan nan nan nan nan nan nan nan nan nan nan nan nan nan